This demonstration page uses our WeatherBlox Daily Observations layout. Learn more.

Left ArrowRight Arrow

41.86663, -103.66717

Hourly Observations for September 27, 2018

Temp ( °F °C ) Dew Point ( °F °C ) Humidity (%) Winds ( mph kmh ) Pressure ( in mb ) Visibility ( mi km ) Precip ( " mm )
12:53 am 00:53 Clear 49 9.4 38 3.3 66 66 NW 5 7 29.96 1015 10 16 N/A
1:53 am 01:53 Clear 47 8.3 39 3.9 74 74 NW 6 9 29.95 1014 10 16 N/A
2:53 am 02:53 Clear 44 6.7 36 2.2 73 73 N 5 7 29.96 1015 10 16 N/A
3:53 am 03:53 Clear 40 4.4 36 2.2 86 86 NW 6 9 29.97 1015 10 16 N/A
4:53 am 04:53 Clear 40 4.4 37 2.8 89 89 NW 6 9 29.97 1015 10 16 N/A
5:53 am 05:53 Clear 39 3.9 37 2.8 93 93 NW 8 13 30.01 1016 10 16 N/A
6:53 am 06:53 Sunny 37 2.8 35 1.7 93 93 NNW 3 6 30.02 1017 10 16 N/A
7:53 am 07:53 Mostly Sunny 43 6.1 38 3.3 82 82 N 5 7 30.02 1017 10 16 N/A
8:53 am 08:53 Sunny 51 10.6 39 3.9 64 64 NW 6 9 30.00 1016 10 16 N/A
9:53 am 09:53 Sunny 59 15 38 3.3 46 46 WNW 3 6 29.97 1015 10 16 N/A
10:53 am 10:53 Sunny 64 17.8 38 3.3 38 38 W 5 7 29.96 1014 10 16 N/A
11:53 am 11:53 Sunny 69 20.6 34 1.1 27 27 WSW 6 9 29.93 1014 10 16 N/A
12:53 pm 12:53 Sunny 72 22.2 31 -0.6 22 22 W 9 15 29.91 1013 10 16 N/A
1:53 pm 13:53 Sunny 75 23.9 31 -0.6 20 20 NNW 10 17 29.89 1012 10 16 N/A
2:53 pm 14:53 Sunny 74 23.3 30 -1.1 20 20 N 10 17 29.88 1012 10 16 N/A
3:53 pm 15:53 Sunny 74 23.3 28 -2.2 18 18 NW 7 11 29.88 1012 10 16 N/A
4:53 pm 16:53 Sunny with Light Rain 70 21.1 39 3.9 32 32 NNE 24 39 29.90 1013 10 16 N/A
5:53 pm 17:53 Sunny with Light Rain 62 16.7 41 5 46 46 NE 21 33 29.95 1014 10 16 N/A
6:53 pm 18:53 Clear with Light Rain 57 13.9 40 4.4 53 53 NE 14 22 30.01 1016 10 16 N/A
7:53 pm 19:53 Clear with Light Rain 55 12.8 42 5.6 62 62 ENE 12 19 30.06 1018 10 16 N/A
8:53 pm 20:53 Clear with Light Rain 53 11.7 42 5.6 66 66 ENE 10 17 30.06 1018 10 16 N/A
9:53 pm 21:53 Mostly Cloudy with Light Rain 51 10.6 45 7.2 80 80 NE 8 13 30.07 1018 10 16 N/A
10:53 pm 22:53 Cloudy with Light Rain 50 10 46 7.8 86 86 NE 12 19 30.08 1019 10 16 N/A
11:19 pm 23:19 Cloudy with Light Rain 49 9.4 45 7.2 86 86 ENE 14 22 30.09 1019 10 16 N/A
11:53 pm 23:53 Cloudy with Light Rain 48 8.9 45 7.2 89 89 ENE 13 20 30.07 1018 10 16 N/A

Powered by AerisWeather